Location: Sungai Bunut
(2.6333°N, 113.7333°E)
Time: 11:59:08
(UTC+00:00)

Ariane 44LP R/B - Pass Details

Date: 16 October 2021
Orbit: 468 x 17842 km, 3.6° (Epoch: 28 November)

Event Time Altitude Azimuth Distance (km) Brightness Sun altitude
Exits shadow 20:29:44 69° 292° (WNW) 880 4.0 -25.3°
Maximum altitude 20:30:19 82° 1° (N) 898 4.2 -25.1°
Drops below altitude 10° 20:41:47 10° 89° (E) 5,540 9.5 -22.3°
Sets 20:50:47 0° 90° (E) 8,928 11.0 -20.1°
